Location: Caixon
(43.4106°N, 0.0273°E)
Time: 02:58:38
(UTC+00:00)

Cosmos 864 Rocket - Pass Details

Date: 16 October 2021
Orbit: 954 x 991 km, 82.9° (Epoch: 30 November)

Event Time Altitude Azimuth Distance (km) Brightness Sun altitude
Rises 04:53:42 0° 352° (N) 3,647 7.4 -15.5°
Reaches altitude 10° 04:56:12 10° 352° (N) 2,700 6.8 -15.1°
Maximum altitude 05:02:24 90° 345° (NNW) 970 4.5 -14.0°
Drops below altitude 10° 05:08:36 10° 174° (S) 2,704 6.9 -12.8°
Sets 05:11:06 0° 175° (S) 3,653 7.6 -12.4°
